Date String (YYYY-MM-DD hh:mm:ss) UTC,Instrument flags,Ambient pressure (hPa),Sample flow (lpm),Bypass flow (lpm),Sample temperature (°C),Ambient temperature (°C),ASC tube jacket temperature (°C),LED temperature (°C),Box temperature (°C),Sample RH (%),Span deviation,Mass concentration (μg/m³),Mass concentration (μg/m³),Mass concentration (μg/m³)
DateTimeUTC,F1_M11,P_M11,Q1_M11,Q2_M11,T1_M11,T2_M11,T3_M11,T4_M11,T5_M11,U1_M11,ZSPAN_M11,X2_M11,X0_M11,X1_M11
2023-01-31 16:00:00,,0825.4,5.00,0.00,22.7,23.3,00.0,31.4,24.7,06.5,0000.3,0006.21,0010.80,0005.86
2023-01-31 16:01:00,,0825.4,5.00,0.00,22.7,22.8,00.0,31.4,24.6,06.5,0000.2,0006.23,0010.86,0005.88
2023-01-31 16:02:00,,0825.5,5.01,0.00,22.7,22.3,00.0,31.5,24.5,06.5,0000.3,0006.27,0011.10,0005.91
2023-01-31 16:03:00,,0825.5,5.00,0.00,22.7,22.0,00.0,31.5,24.4,06.5,0000.6,0006.31,0011.46,0005.95
2023-01-31 16:04:00,,0825.4,5.01,0.00,22.7,21.7,00.0,31.5,24.3,06.5,0000.7,0006.34,0011.54,0005.97
2023-01-31 16:05:00,,0825.4,4.98,0.00,22.6,21.5,00.0,31.5,24.3,06.5,0001.1,0006.34,0011.52,0005.98
2023-01-31 16:06:00,,0825.4,5.00,0.00,22.6,21.3,00.0,31.5,24.3,06.6,0001.0,0006.30,0011.44,0005.97
2023-01-31 16:07:00,,0825.4,4.98,0.00,22.6,21.2,00.0,31.5,24.2,06.6,0000.6,0006.26,0010.94,0005.93
2023-01-31 16:08:00,,0825.4,5.01,0.00,22.6,21.1,00.0,31.5,24.2,06.6,0000.0,0006.21,0010.17,0005.87
2023-01-31 16:09:00,,0825.4,5.00,0.00,22.5,21.0,00.0,31.5,24.2,06.6,-000.7,0006.14,0009.92,0005.81
2023-01-31 16:10:00,,0825.5,5.01,0.00,22.6,21.5,00.0,31.5,24.3,06.6,-000.9,0006.09,0009.84,0005.78
2023-01-31 16:11:00,,0825.5,5.00,0.00,22.7,22.9,00.0,31.4,24.6,06.6,-000.3,0006.06,0009.81,0005.74
2023-01-31 16:12:00,,0825.5,4.98,0.00,22.8,23.5,00.0,31.5,24.8,06.5,0000.6,0006.05,0009.74,0005.74
2023-01-31 16:13:00,,0825.5,5.00,0.00,22.8,23.0,00.0,31.5,24.8,06.4,0000.4,0006.04,0009.74,0005.73
2023-01-31 16:14:00,,0825.5,4.98,0.00,22.8,22.6,00.0,31.6,24.7,06.4,0000.5,0006.04,0009.21,0005.72
2023-01-31 16:15:00,,0825.6,4.99,0.00,22.8,22.2,00.0,31.6,24.6,06.4,0000.3,0006.08,0009.64,0005.75
2023-01-31 16:16:00,,0825.6,5.00,0.00,22.8,21.9,00.0,31.6,24.5,06.4,0000.6,0006.20,0009.84,0005.85
2023-01-31 16:17:00,,0825.6,5.01,0.00,22.8,21.6,00.0,31.6,24.5,06.4,0000.1,0006.36,0010.15,0005.96
2023-01-31 16:18:00,,0825.6,4.99,0.00,22.7,21.5,00.0,31.6,24.4,06.4,0000.2,0006.49,0010.31,0006.09
2023-01-31 16:19:00,,0825.5,5.00,0.00,22.7,21.3,00.0,31.6,24.4,06.4,0001.1,0006.73,0010.65,0006.30
2023-01-31 16:20:00,,0825.5,4.98,0.00,22.7,21.2,00.0,31.6,24.3,06.4,0001.6,0006.99,0011.02,0006.51
2023-01-31 16:21:00,,0825.4,5.00,0.00,22.7,21.1,00.0,31.6,24.3,06.4,0001.3,0007.17,0011.35,0006.67
2023-01-31 16:22:00,,0825.5,5.01,0.00,22.6,21.1,00.0,31.6,24.3,06.4,0000.1,0007.35,0011.60,0006.86
2023-01-31 16:23:00,,0825.6,4.99,0.00,22.6,21.3,00.0,31.5,24.3,06.4,-000.1,0007.51,0011.78,0007.03
2023-01-31 16:24:00,,0825.6,5.01,0.00,22.7,22.6,00.0,31.5,24.6,06.4,-000.3,0007.64,0011.91,0007.15
2023-01-31 16:25:00,,0825.7,4.98,0.00,22.9,23.6,00.0,31.5,24.9,06.3,-000.3,0007.75,0012.12,0007.26
2023-01-31 16:26:00,,0825.7,5.01,0.00,22.9,23.3,00.0,31.6,24.9,06.2,-000.5,0007.85,0012.00,0007.34
2023-01-31 16:27:00,,0825.6,5.01,0.00,22.9,22.8,00.0,31.6,24.8,06.1,-001.2,0007.86,0011.99,0007.36
2023-01-31 16:28:00,,0825.6,5.01,0.00,22.9,22.6,00.0,31.6,24.8,06.1,-001.3,0007.87,0012.01,0007.36
2023-01-31 16:29:00,,0825.6,5.00,0.00,22.9,22.1,00.0,31.7,24.7,06.0,-001.2,0007.88,0011.93,0007.38
2023-01-31 16:30:00,,0825.6,4.98,0.00,22.9,21.8,00.0,31.7,24.6,05.9,-001.5,0007.89,0011.93,0007.38
2023-01-31 16:31:00,,0825.6,5.01,0.00,22.9,21.7,00.0,31.7,24.6,05.8,-001.5,0007.85,0011.87,0007.34
2023-01-31 16:32:00,,0825.6,4.98,0.00,22.9,21.6,00.0,31.7,24.6,05.8,-001.6,0007.75,0011.78,0007.24
2023-01-31 16:33:00,,0825.6,5.05,0.00,22.8,21.5,00.0,31.7,24.5,05.7,-001.5,0007.77,0011.93,0007.21
2023-01-31 16:34:00,,0825.6,4.94,0.00,22.8,21.4,00.0,31.7,24.5,05.7,-000.9,0007.77,0012.10,0007.15
2023-01-31 16:35:00,,0825.6,5.05,0.00,22.8,21.3,00.0,31.7,24.5,05.7,-000.5,0007.73,0012.71,0007.04
2023-01-31 16:36:00,,0825.5,4.98,0.00,22.8,21.3,00.0,31.7,24.5,05.6,-000.4,0007.65,0012.89,0006.93
2023-01-31 16:37:00,,0825.5,5.03,0.00,22.8,21.2,00.0,31.7,24.4,05.5,-000.3,0007.59,0012.93,0006.83
2023-01-31 16:38:00,,0825.5,4.98,0.00,22.8,21.2,00.0,31.6,24.4,05.5,-000.6,0007.48,0012.68,0006.70
2023-01-31 16:39:00,,0825.6,5.02,0.00,22.8,22.0,00.0,31.6,24.6,05.4,0000.0,0007.30,0012.41,0006.53
2023-01-31 16:40:00,,0825.5,4.99,0.00,22.9,23.2,00.0,31.6,24.9,05.4,-000.1,0007.08,0012.05,0006.34
2023-01-31 16:41:00,,0825.6,5.00,0.00,23.0,23.5,00.0,31.7,25.0,05.3,0000.5,0006.87,0012.24,0006.15
2023-01-31 16:42:00,,0825.6,4.99,0.00,23.0,23.1,00.0,31.7,24.9,05.3,0000.3,0006.67,0012.63,0005.97
2023-01-31 16:43:00,,0825.6,5.00,0.00,23.0,22.7,00.0,31.7,24.9,05.3,-000.1,0006.52,0012.62,0005.86
2023-01-31 16:44:00,,0825.7,4.99,0.00,23.0,22.3,00.0,31.7,24.8,05.3,-000.7,0006.38,0012.28,0005.79
2023-01-31 16:45:00,,0825.7,4.99,0.00,23.0,22.1,00.0,31.8,24.8,05.3,-000.7,0006.27,0011.94,0005.75
2023-01-31 16:46:00,,0826.1,4.99,0.00,23.0,21.8,00.0,31.8,24.7,05.3,-000.8,0006.32,0011.60,0005.81
2023-01-31 16:47:00,,0825.9,5.02,0.00,23.0,21.6,00.0,31.8,24.6,05.4,-000.9,0006.58,0011.65,0006.05
2023-01-31 16:48:00,,0825.7,5.00,0.00,22.9,21.2,00.0,31.8,24.4,05.4,-000.5,0006.92,0012.09,0006.39
2023-01-31 16:49:00,,0825.9,5.04,0.00,22.8,21.0,00.0,31.8,24.4,05.4,-000.4,0007.27,0012.54,0006.74
2023-01-31 16:50:00,,0825.8,5.01,0.00,22.8,20.8,00.0,31.7,24.3,05.4,-000.7,0007.70,0013.78,0007.13
2023-01-31 16:51:00,,0825.8,5.00,0.00,22.7,20.8,00.0,31.7,24.3,05.4,-000.3,0008.14,0014.50,0007.55
2023-01-31 16:52:00,,0825.8,5.00,0.00,22.7,20.9,00.0,31.7,24.3,05.4,0000.2,0008.66,0014.74,0008.01
2023-01-31 16:53:00,,0826.0,5.00,0.00,22.7,21.1,00.0,31.7,24.3,05.5,0000.2,0009.15,0014.78,0008.49
2023-01-31 16:54:00,,0825.9,4.99,0.00,22.7,21.1,00.0,31.7,24.3,05.5,-000.0,0009.53,0015.13,0008.84
2023-01-31 16:55:00,,0825.7,5.01,0.00,22.7,21.2,00.0,31.6,24.3,05.5,0000.0,0009.83,0015.54,0009.14
2023-01-31 16:56:00,,0825.7,5.01,0.00,22.7,21.9,00.0,31.6,24.5,05.5,0000.1,0010.13,0016.76,0009.42
2023-01-31 16:57:00,,0825.8,5.00,0.00,22.9,23.2,00.0,31.6,24.8,05.4,0000.2,0010.28,0017.01,0009.61
2023-01-31 16:58:00,,0825.9,4.98,0.00,23.0,23.6,00.0,31.6,25.0,05.3,0000.2,0010.23,0017.54,0009.57
2023-01-31 16:59:00,,0825.7,5.00,0.00,23.0,23.1,00.0,31.7,24.9,05.2,-000.0,0010.08,0017.47,0009.42
